Location: Mesa Vista Observatory
(35.5777°N, 105.6987°W)
Time: 23:15:46
(UTC-06:00)

Hubble Space Telescope - Pass Details

Date: 25 June 2019
Orbit: 536 x 540 km, 28.5° (Epoch: 17 August)

Event Time Altitude Azimuth Distance (km) Brightness Sun altitude
Rises 21:35:07 0° 231° (SW) 2,668 4.4 -12.9°
Reaches altitude 10° 21:37:48 10° 214° (SW) 1,778 3.3 -13.3°
Maximum altitude 21:40:52 20° 166° (SSE) 1,252 2.1 -13.7°
Enters shadow 21:41:12 20° 159° (SSE) 1,259 2.1 -13.8°
